TimeEST,TemperatureF,Dew PointF,Humidity,Sea Level PressureIn,VisibilityMPH,Wind Direction,Wind SpeedMPH,Gust SpeedMPH,PrecipitationIn,Events,Conditions,WindDirDegrees,DateUTC
12:51 AM,50.0,44.1,80,29.54,10.0,WSW,4.6,-,N/A,,Overcast,240,2012-03-01 05:51:00
1:51 AM,46.9,37.0,68,29.58,10.0,WNW,12.7,28.8,0.00,,Overcast,300,2012-03-01 06:51:00
2:51 AM,46.0,37.0,71,29.58,10.0,West,10.4,-,N/A,,Overcast,270,2012-03-01 07:51:00
3:51 AM,45.0,32.0,60,29.60,10.0,West,15.0,21.9,N/A,,Overcast,260,2012-03-01 08:51:00
4:51 AM,43.0,28.9,58,29.62,10.0,West,13.8,28.8,N/A,,Overcast,260,2012-03-01 09:51:00
5:51 AM,41.0,28.0,60,29.65,10.0,West,25.3,33.4,N/A,,Overcast,260,2012-03-01 10:51:00
6:51 AM,39.0,28.0,65,29.68,10.0,West,17.3,27.6,N/A,,Overcast,260,2012-03-01 11:51:00
7:27 AM,37.4,28.4,70,29.68,10.0,West,16.1,21.9,N/A,,Overcast,260,2012-03-01 12:27:00
7:51 AM,37.4,28.4,70,29.69,10.0,West,12.7,26.5,N/A,,Overcast,270,2012-03-01 12:51:00
8:51 AM,37.0,28.9,73,29.73,10.0,WSW,15.0,19.6,N/A,,Overcast,250,2012-03-01 13:51:00
9:51 AM,37.0,30.0,76,29.75,9.0,WSW,9.2,-,0.00,Snow,Light Snow,250,2012-03-01 14:51:00
10:40 AM,35.6,30.2,81,29.75,9.0,West,10.4,-,0.00,Rain-Snow,Light Rain,260,2012-03-01 15:40:00
10:51 AM,36.0,30.9,82,29.77,10.0,WSW,10.4,-,0.00,,Overcast,240,2012-03-01 15:51:00
11:00 AM,37.4,30.2,75,29.75,10.0,WSW,9.2,-,N/A,,Overcast,240,2012-03-01 16:00:00
11:39 AM,37.4,30.2,75,29.77,10.0,WSW,12.7,-,N/A,,Overcast,250,2012-03-01 16:39:00
11:51 AM,37.9,28.9,70,29.79,10.0,WSW,17.3,23.0,N/A,,Overcast,250,2012-03-01 16:51:00
12:51 PM,37.9,28.9,70,29.79,10.0,West,12.7,25.3,N/A,,Overcast,260,2012-03-01 17:51:00
1:51 PM,37.0,30.9,79,29.81,9.0,WSW,12.7,-,0.00,,Overcast,240,2012-03-01 18:51:00
2:51 PM,37.4,30.2,75,29.81,10.0,West,12.7,-,N/A,Snow,Light Snow,260,2012-03-01 19:51:00
3:51 PM,37.0,30.0,76,29.85,10.0,WSW,12.7,-,0.00,,Light Drizzle,250,2012-03-01 20:51:00
4:51 PM,37.9,30.0,73,29.87,10.0,WSW,8.1,-,0.00,,Overcast,240,2012-03-01 21:51:00
5:41 PM,37.4,30.2,75,29.86,10.0,West,6.9,-,0.00,Rain,Light Rain,260,2012-03-01 22:41:00
5:51 PM,37.0,30.9,79,29.89,10.0,WSW,6.9,-,0.00,,Overcast,240,2012-03-01 22:51:00
6:51 PM,37.0,30.9,79,29.91,10.0,SW,9.2,-,N/A,,Overcast,230,2012-03-01 23:51:00
7:51 PM,37.0,30.9,79,29.93,10.0,SW,5.8,-,N/A,,Overcast,230,2012-03-02 00:51:00
8:51 PM,37.0,30.0,76,29.94,10.0,SW,4.6,-,N/A,,Overcast,220,2012-03-02 01:51:00
9:51 PM,37.4,30.2,75,29.91,10.0,SSW,3.5,-,N/A,,Overcast,210,2012-03-02 02:51:00
10:51 PM,37.0,28.9,73,29.94,10.0,SSW,3.5,-,N/A,,Overcast,200,2012-03-02 03:51:00
11:38 PM,37.4,28.4,70,29.90,10.0,Calm,Calm,-,N/A,,Overcast,0,2012-03-02 04:38:00
11:51 PM,37.0,28.9,73,29.93,10.0,Calm,Calm,-,N/A,,Overcast,0,2012-03-02 04:51:00